Location: Fauquembergues
(50.6005°N, 2.0987°E)
Time: 08:42:40
(UTC+00:00)

Meteor 1-5 Rocket - Pass Details

Date: 14 July 2020
Orbit: 789 x 915 km, 81.2° (Epoch: 14 August)

Event Time Altitude Azimuth Distance (km) Brightness Sun altitude
Exits shadow 01:55:51 16° 188° (S) 2,076 5.7 -13.2°
Maximum altitude 02:00:26 85° 100° (E) 891 4.3 -12.9°
Drops below altitude 10° 02:06:21 10° 13° (NNE) 2,586 8.0 -12.4°
Sets 02:08:51 0° 13° (NNE) 3,543 9.0 -12.2°
